Weather History for Milton, FL

Change the Weather History Date:

Sunday, November 27, 2011

  Actual Average (KNSE) Record (KNSE)
Temperature  
Mean Temperature 60 °F -  
Max Temperature 70 °F 65 °F 80 °F (2001)
Min Temperature 50 °F 46 °F 30 °F (2013)
Degree Days  
Heating Degree Days 5    
Growing Degree Days 10 (Base 50)    
Moisture  
Dew Point 61 °F    
Average Humidity 93    
Maximum Humidity 100    
Minimum Humidity 84    
Precipitation  
Precipitation 0.50 in - - ()
Sea Level Pressure  
Sea Level Pressure 29.89 in    
Wind  
Wind Speed 8 mph (WSW)    
Max Wind Speed 17 mph    
Max Gust Speed 25 mph    
Visibility 9 miles    
Events Rain    
Averages and records for this station are not official NWS values.
T = Trace of Precipitation, MM = Missing Value Source: NWS Daily Summary

Daily Weather History Graph

Daily Weather History Graph

Search for Another Location

Airport:

Trip Planner

Search our weather history database for the weather conditions in past years. The results will help you decide how hot, cold, wet, or windy it might be!

Date:

Astronomy

Nov. 27, 2011 Rise Set
Actual Time 6:24 AM CST 4:46 PM CST
Civil Twilight 5:58 AM CST 5:12 PM CST
Nautical Twilight 5:28 AM CST 5:42 PM CST
Astronomical Twilight 4:59 AM CST 6:11 PM CST
Moon 8:47 AM CST (11/27) 7:25 PM CST (11/27)
Length of Visible Light 11h 14m
Length of Day
10h 22m
Waxing Crescent, 8% of the Moon is Illuminated
Nov 27
Waxing Crescent
Dec 2
First Quarter
Dec 10
Full
Dec 17
Last Quarter
Dec 24
New

Hourly Weather History & Observations

Time (CST) Temp. Dew Point Humidity Pressure Visibility Wind Dir Wind Speed Gust Speed Precip Events Conditions
12:56 AM 66.9 °F 63.0 °F 87% 29.96 in 10.0 mi SSE 17.3 mph 25.3 mph 0.00 in Rain Light Rain
1:56 AM 66.9 °F 63.0 °F 87% 29.94 in 10.0 mi South 9.2 mph - 0.00 in   Overcast
2:56 AM 66.9 °F 64.0 °F 90% 29.94 in 10.0 mi South 17.3 mph 25.3 mph 0.01 in   Overcast
3:56 AM 66.0 °F 64.0 °F 93% 29.94 in 10.0 mi SSE 6.9 mph - 0.01 in   Overcast
4:56 AM 66.0 °F 64.0 °F 93% 29.92 in 10.0 mi South 9.2 mph - 0.01 in Rain Light Rain
5:56 AM 66.0 °F 64.0 °F 93% 29.91 in 10.0 mi SE 6.9 mph - 0.00 in   Overcast
6:56 AM 68.0 °F 63.0 °F 84% 29.91 in 10.0 mi SSE 8.1 mph - N/A   Overcast
7:56 AM 68.0 °F 64.0 °F 87% 29.91 in 10.0 mi South 5.8 mph - 0.01 in   Overcast
8:56 AM 69.1 °F 64.9 °F 87% 29.94 in 10.0 mi SE 4.6 mph - 0.00 in Rain Light Rain
9:56 AM 68.0 °F 66.0 °F 93% 29.94 in 9.0 mi SSE 3.5 mph - 0.05 in Rain Light Rain
10:56 AM 68.0 °F 66.9 °F 96% 29.92 in 3.0 mi Calm Calm - 0.07 in Rain Rain
11:56 AM 70.0 °F 66.9 °F 90% 29.88 in 10.0 mi SSW 5.8 mph - 0.01 in Rain Light Rain
12:42 PM 69.8 °F 66.2 °F 88% 29.91 in 8.0 mi SSW 9.2 mph 16.1 mph 0.00 in Rain Light Rain
12:56 PM 69.1 °F 66.0 °F 90% 29.86 in 10.0 mi SW 8.1 mph 17.3 mph 0.00 in Rain Light Rain
1:03 PM 69.8 °F 66.2 °F 88% 29.90 in 10.0 mi SSW 9.2 mph - 0.00 in   Overcast
1:56 PM 68.0 °F 64.9 °F 90% 29.84 in 10.0 mi SSW 3.5 mph - 0.01 in   Overcast
2:53 PM 66.2 °F 66.2 °F 100% 29.86 in 9.0 mi Calm Calm - 0.00 in Rain Light Rain
3:05 PM 66.2 °F 64.4 °F 94% 29.86 in 8.0 mi Calm Calm - 0.01 in Rain Light Rain
3:26 PM 66.2 °F 66.2 °F 100% 29.86 in 1.8 mi West 4.6 mph - 0.11 in Rain Rain
3:34 PM 66.2 °F 66.2 °F 100% 29.86 in 1.0 mi West 4.6 mph - 0.19 in Rain Heavy Rain
3:40 PM 66.2 °F 66.2 °F 100% 29.86 in 2.0 mi Variable 3.5 mph - 0.20 in Rain Rain
3:48 PM 66.2 °F 66.2 °F 100% 29.86 in 9.0 mi Calm Calm - 0.20 in Rain Light Rain
3:56 PM 66.9 °F 66.0 °F 97% 29.81 in 10.0 mi Calm Calm - 0.20 in   Overcast
4:18 PM 66.2 °F 64.4 °F 94% 29.85 in 10.0 mi WNW 6.9 mph - N/A   Overcast
4:46 PM 64.4 °F 62.6 °F 94% 29.85 in 2.5 mi NW 9.2 mph - N/A   Overcast
4:56 PM 63.0 °F 62.1 °F 97% 29.82 in 5.0 mi NW 9.2 mph - N/A   Overcast
5:12 PM 62.6 °F 60.8 °F 94% 29.86 in 10.0 mi NW 6.9 mph - N/A   Overcast
5:19 PM 62.6 °F 60.8 °F 94% 29.86 in 10.0 mi WNW 5.8 mph - N/A   Overcast
5:47 PM 62.6 °F 60.8 °F 94% 29.87 in 10.0 mi NW 6.9 mph - N/A   Overcast
5:56 PM 62.1 °F 61.0 °F 96% 29.83 in 10.0 mi WNW 8.1 mph - N/A   Overcast
6:56 PM 61.0 °F 59.0 °F 93% 29.86 in 10.0 mi West 3.5 mph - 0.02 in Rain Light Rain
7:56 PM 61.0 °F 59.0 °F 93% 29.87 in 10.0 mi Calm Calm - 0.02 in Rain Light Rain
8:34 PM 57.2 °F 57.2 °F 100% 29.90 in 10.0 mi NW 11.5 mph 20.7 mph 0.02 in Rain Light Rain
8:43 PM 57.2 °F 55.4 °F 94% 29.90 in 10.0 mi NW 11.5 mph - 0.03 in Rain Light Rain
8:56 PM 55.0 °F 53.1 °F 93% 29.88 in 10.0 mi WNW 10.4 mph 18.4 mph 0.03 in   Overcast
9:56 PM 53.1 °F 51.1 °F 93% 29.87 in 10.0 mi NW 6.9 mph - 0.00 in   Overcast
10:10 PM 51.8 °F 51.8 °F 100% 29.91 in 10.0 mi Variable 6.9 mph - 0.01 in Rain Light Rain
10:37 PM 51.8 °F 48.2 °F 88% 29.90 in 10.0 mi NW 10.4 mph - 0.02 in Rain Light Rain
10:48 PM 51.8 °F 48.2 °F 88% 29.90 in 10.0 mi NW 9.2 mph - 0.02 in Rain Light Rain
10:56 PM 51.1 °F 48.9 °F 92% 29.87 in 10.0 mi NW 9.2 mph - 0.03 in Rain Light Rain
11:21 PM 50.0 °F 48.2 °F 94% 29.91 in 10.0 mi WNW 6.9 mph - 0.01 in Rain Light Rain
11:56 PM 50.0 °F 48.0 °F 93% 29.88 in 10.0 mi WNW 9.2 mph - 0.02 in   Overcast